Location: Deerlick Astronomy Village
(33.5614°N, 82.7631°W)
Time: 02:15:29
(UTC-04:00)

Iridium 66 - Visible Passes

Search period start: 21 August 2014 00:00
Search period end: 31 August 2014 00:00
Orbit: 776 x 779 km, 86.4° (Epoch: 20 August)

Date Brightness Start Highest point End Pass type
(mag) Time Alt. Az. Time Alt. Az. Time Alt. Az.
21 Aug 7.7 22:46:06 23° NNE 22:46:06 23° NNE 22:48:10 10° NNE visible
22 Aug 8.7 00:26:33 14° NW 00:26:33 14° NW 00:27:41 10° NW visible
22 Aug 8.0 22:12:31 15° NE 22:12:31 15° NE 22:13:50 10° NE visible
22 Aug 8.2 23:52:58 22° NW 23:52:58 22° NW 23:55:10 10° NNW visible
23 Aug 7.6 23:19:23 30° NNW 23:19:23 30° NNW 23:22:01 10° N visible
24 Aug 7.4 22:45:46 31° NNE 22:45:46 31° NNE 22:48:28 10° N visible
25 Aug 8.9 00:26:14 10° NW 00:26:14 10° NW 00:26:20 10° NW visible
25 Aug 7.6 22:12:09 23° NE 22:12:09 23° NE 22:14:29 10° NNE visible
25 Aug 8.4 23:52:36 19° NW 23:52:36 19° NW 23:54:46 10° NNW visible
26 Aug 8.0 21:38:30 14° ENE 21:38:30 14° ENE 21:39:48 10° NE visible
26 Aug 7.7 23:18:58 31° NW 23:18:58 31° NW 23:21:56 10° NNW visible
27 Aug 7.0 22:45:18 41° N 22:45:18 41° N 22:48:37 10° N visible
28 Aug 7.0 22:11:37 35° NE 22:11:37 35° NE 22:14:55 10° NNE visible
28 Aug 8.6 23:52:04 15° WNW 23:52:04 15° WNW 23:53:59 10° NW visible
29 Aug 7.4 21:37:54 22° ENE 21:37:54 22° ENE 21:40:43 10° NNE visible
29 Aug 7.9 23:18:21 27° WNW 23:18:21 27° WNW 23:21:41 10° NNW visible
30 Aug 7.9 21:04:10 12° ENE 21:04:10 12° ENE 21:05:21 10° ENE visible
30 Aug 6.8 22:44:37 48° NW 22:44:37 48° NW 22:48:38 10° N visible
